CST,Max TemperatureF,Mean TemperatureF,Min TemperatureF,Max Dew PointF,MeanDew PointF,Min DewpointF,Max Humidity, Mean Humidity, Min Humidity, Max Sea Level PressureIn, Mean Sea Level PressureIn, Min Sea Level PressureIn, Max VisibilityMiles, Mean VisibilityMiles, Min VisibilityMiles, Max Wind SpeedMPH, Mean Wind SpeedMPH, Max Gust SpeedMPH,PrecipitationIn, CloudCover, Events, WindDirDegrees
2011-12-1,35,29,21,30,22,9,87,69,47,30.51,30.29,29.99,10,10,10,31,13,36,0.00,3,,4
2011-12-2,37,21,5,27,13,1,92,69,41,30.51,30.29,30.07,10,10,10,22,7,26,0.00,1,,189
2011-12-3,35,32,28,34,31,27,100,96,86,30.08,30.01,29.93,10,3,0,25,8,31,0.22,8,Rain-Snow,358
2011-12-4,28,18,8,23,18,5,93,80,69,30.32,30.19,30.07,10,9,0,12,7,,0.00,4,Fog,303
2011-12-5,23,16,10,19,14,9,93,83,74,30.50,30.45,30.37,10,10,7,24,11,24,0.00,7,Snow,347
2011-12-6,14,5,-4,9,2,-8,92,85,79,30.49,30.36,30.22,10,10,7,12,6,,0.00,0,Snow,315
2011-12-7,32,19,6,27,15,3,100,81,73,30.17,30.09,30.02,10,10,2,12,5,,0.00,2,,273
2011-12-8,30,19,8,28,19,5,100,92,85,30.31,30.23,30.17,10,5,1,16,4,,0.00,7,Snow,2
2011-12-9,23,10,-2,19,15,-6,100,88,80,30.48,30.39,30.29,10,9,0,7,3,,0.00,6,Fog-Snow,317
2011-12-10,32,28,24,23,22,19,86,76,69,30.46,30.36,30.27,10,8,0,10,5,,0.00,1,Fog,190
2011-12-11,37,32,26,34,31,23,100,92,81,30.24,30.16,30.06,10,6,3,17,12,23,0.00,7,,198
2011-12-12,39,36,33,36,33,32,100,86,81,30.21,30.13,30.07,10,9,5,16,9,,0.00,8,,191
2011-12-13,37,34,32,36,33,30,100,96,93,30.28,30.19,30.05,7,4,0,12,6,,0.00,8,Fog-Rain,79
2011-12-14,44,40,35,45,39,32,100,96,87,29.99,29.79,29.66,10,4,0,21,6,25,0.08,8,Fog-Rain,254
2011-12-15,33,28,23,30,25,19,93,79,64,30.40,30.20,29.91,10,10,7,24,13,34,0.00,3,,326
2011-12-16,35,26,17,28,23,16,93,86,75,30.42,30.36,30.27,10,10,10,14,5,,0.00,2,,208
2011-12-17,50,36,23,32,28,21,100,77,47,30.31,30.28,30.23,10,10,10,15,5,18,0.00,0,,266
2011-12-18,51,40,28,37,31,23,100,81,54,30.20,29.96,29.80,10,10,5,15,7,17,0.00,0,,195
2011-12-19,33,32,30,32,29,27,100,87,75,30.24,30.07,29.81,10,9,4,29,12,37,0.00,2,,8
2011-12-20,32,29,26,27,23,21,86,79,69,30.22,29.99,29.78,10,10,10,20,9,9,0.00,6,,11
2011-12-21,44,32,21,32,26,19,100,80,57,29.92,29.75,29.67,10,10,7,15,6,,0.00,1,,268
2011-12-22,32,26,21,32,23,18,100,81,69,30.40,30.28,30.04,10,8,2,25,17,30,0.00,3,Snow,2
2011-12-23,35,24,12,27,19,10,93,77,60,30.41,30.28,30.17,10,10,10,22,7,29,0.00,0,,244
2011-12-24,46,34,21,30,25,19,93,72,46,30.31,30.27,30.24,10,10,10,9,4,,0.00,0,,266
2011-12-25,46,38,30,28,25,23,75,63,46,30.45,30.36,30.28,10,10,10,14,9,17,0.00,0,,304
2011-12-26,50,37,24,30,26,21,87,68,43,30.26,30.04,29.88,10,10,10,22,10,30,0.00,2,,217
2011-12-27,42,37,32,27,25,21,80,66,53,30.07,30.02,29.93,10,10,10,20,14,26,0.00,0,,322
2011-12-28,53,37,21,30,25,19,93,70,35,30.00,29.89,29.77,10,10,10,9,4,,0.00,1,,210
2011-12-29,53,42,32,41,33,28,87,64,44,29.72,29.59,29.45,10,10,10,32,7,47,0.00,4,Rain,217
2011-12-30,46,39,30,39,32,28,93,70,57,29.87,29.76,29.54,10,10,10,32,20,43,0.00,4,,310
2011-12-31,48,38,28,34,30,27,93,78,54,29.83,29.62,29.46,10,10,7,28,12,39,0.00,2,Rain,152